This is the latest recevied weather packets stored in our database for station/object EA1CZ-10. If no packets are shown the sender has not sent any weather packets the latest 10 day(s).
| Time | Temp. | Humidity | Pressure | Rain* | Wind** | Luminosity | Snow |
|---|---|---|---|---|---|---|---|
| 1778096085 | 7.78° C | 69% | 1026.8 hPa | - | - | - | - |
| 1778094285 | 7.22° C | 69% | 1026.7 hPa | - | - | - | - |
| 1778092485 | 6.67° C | 69% | 1026.6 hPa | - | - | - | - |
| 1778090684 | 6.11° C | 69% | 1026.6 hPa | - | - | - | - |
| 1778088884 | 7.22° C | 68% | 1026.6 hPa | - | - | - | - |
| 1778087084 | 11.11° C | 67% | 1026.7 hPa | - | - | - | - |
| 1778085284 | 12.22° C | 67% | 1026.7 hPa | - | - | - | - |
| 1778083484 | 12.22° C | 67% | 1026.7 hPa | - | - | - | - |
| 1778081684 | 12.78° C | 66% | 1026.6 hPa | - | - | - | - |
| 1778078089 | 12.78° C | 67% | 1027.3 hPa | - | - | - | - |
| 1778076289 | 16.11° C | 66% | 1027.4 hPa | - | - | - | - |
| 1778074489 | 16.11° C | 66% | 1027.6 hPa | - | - | - | - |
| 1778072689 | 15° C | 67% | 1027.7 hPa | - | - | - | - |
| 1778070889 | 15° C | 66% | 1028 hPa | - | - | - | - |
| 1778069088 | 15.56° C | 67% | 1028 hPa | - | - | - | - |
| 1778067288 | 13.89° C | 67% | 1028.4 hPa | - | - | - | - |
| 1778065488 | 13.33° C | 68% | 1028.3 hPa | - | - | - | - |
| 1778063688 | 12.22° C | 69% | 1028.3 hPa | - | - | - | - |
| 1778061887 | 10.56° C | 69% | 1028.3 hPa | - | - | - | - |
| 1778060087 | 9.44° C | 69% | 1028.2 hPa | - | - | - | - |
| 1778058287 | 8.89° C | 70% | 1028.1 hPa | - | - | - | - |
| 1778056486 | 8.33° C | 70% | 1028.1 hPa | - | - | - | - |
| 1778054686 | 7.22° C | 70% | 1028 hPa | - | - | - | - |
| 1778052886 | 6.67° C | 71% | 1028.1 hPa | - | - | - | - |
| 1778051086 | 5.56° C | 71% | 1028 hPa | - | - | - | - |
* Rain since midnight (hover to see other rain measurements)
** Current wind speed in m/s (hover to see current wind gust speed)